Regional Weather Roundup
Issued by NWS Sterling, VA

Home | Current Version | Previous Version | Text Only | Print | Product List | Glossary Off
Versions: 1 2 3 4 5 6 7 8 9 10 11 12 13 14 15 16 17 18 19 20 21 22 23 24 25 26 27

000
ASUS41 KLWX 220411
RWRLWX

REGIONAL WEATHER ROUNDUP
NATIONAL WEATHER SERVICE BALTIMORE MD/WASHINGTON DC
1200 AM EDT SUN OCT 22 2017

Note: "FAIR" indicates few or no clouds below 12,000 feet
with no significant weather and/or obstructions to visibility.
 TC=TEMPERATURE CELSIUS

 * =Non NWS site. Station does not report precipitation (e.g. rain,
    snow, etc.), thunder, or fog.

DCZ001-MDZ009-015-VAZ040>042-051-053>054-220500-
WASHINGTON METRO

CITY           SKY/WX    TMP DP  RH WIND       PRES   REMARKS
WASHINGTON NAT MOCLDY    61  50  67 CALM      30.36F
DULLES         PTCLDY    51  47  86 CALM      30.36S
QUANTICO         N/A     55  53  93 NW7       30.37S
COLLEGE PARK*  CLEAR     49  47  92 CALM      30.36S
LEESBURG*      PTCLDY    54  50  87 CALM      30.36F
MANASSAS*      CLEAR     48  47  96 CALM      30.36F
GAITHERSBURG*  CLEAR     50  47  89 CALM      30.36F

$$

MDZ006>007-011-014-220500-
BALTIMORE METRO

CITY           SKY/WX    TMP DP  RH WIND       PRES   REMARKS
BWI AIRPORT    PTCLDY    49  49 100 CALM      30.36S
MD SCIENCE CTR   N/A     62  49  62 MISG      30.37S
MARTIN STATE   CLEAR     52  52 100 CALM      30.38S
ANNAPOLIS      CLEAR     57  56  96 CALM      30.35F
FORT MEADE*    CLEAR     46  45  93 CALM      30.39S

$$

MDZ012-015-019>023-220500-
MARYLAND EASTERN SHORE

CITY           SKY/WX    TMP DP  RH WIND       PRES   REMARKS
OCEAN CITY     PTCLDY    52  52 100 CALM      30.37F FOG
SALISBURY      CLOUDY    53  53 100 CALM      30.36F
CAMBRIDGE*     CLEAR     52  50  93 CALM      30.36F
EASTON*        PTCLDY    56  50  80 CALM      30.40S

$$

MDZ017>025-220500-
SOUTHERN MARYLAND

CITY           SKY/WX    TMP DP  RH WIND       PRES   REMARKS
PATUXENT RIVER PTCLDY    51  49  92 CALM      30.35F
ST INIGOES     CLOUDY    51  50  96 CALM      30.35F
LEONARDTOWN*   NOT AVBL

$$

MDZ003>005-220500-
NORTH CENTRAL MARYLAND

CITY           SKY/WX    TMP DP  RH WIND       PRES   REMARKS
FREDERICK*     PTCLDY    50  50 100 CALM      30.38F
HAGERSTOWN APT CLEAR     59  46  62 CALM      30.34F
WESTMINSTER*   CLEAR     57  46  67 CALM      30.36F

$$

MDZ501>502-220500-
WESTERN MARYLAND

CITY           SKY/WX    TMP DP  RH WIND       PRES   REMARKS
OAKLAND*       PTCLDY    54  45  71 SE8       30.33S
CUMBERLAND*    PTCLDY    54  50  87 CALM      30.37S

$$

VAZ025>031-220500-
SHENANDOAH VALLEY

CITY           SKY/WX    TMP DP  RH WIND       PRES   REMARKS
WINCHESTER*    PTCLDY    54  43  66 S3        30.34F
FRONT ROYAL*   PTCLDY    54  48  82 CALM      30.33F
LURAY*         PTCLDY    54  52  94 S3        30.35S
NEW MARKET*    MOCLDY    51  49  91 CALM      30.35S
STAUNTON*      CLOUDY    50  47  90 CALM      30.37F
WAYNESBORO*    PTCLDY    57  52  81 SE3       30.37S

$$

WVZ021-048>050-054>055-220500-
EASTERN WEST VIRGINIA PANHANDLE

CITY           SKY/WX    TMP DP  RH WIND       PRES   REMARKS
MARTINSBURG    PTCLDY    50  46  86 CALM      30.34S
PETERSBURG*    CLOUDY    49  48  96 CALM      30.34S

$$

VAZ036>039-050-220500-
CENTRAL FOOTHILLS

CITY           SKY/WX    TMP DP  RH WIND       PRES   REMARKS
CHARLOTTESVILL MOCLDY    58  54  86 CALM      30.36R
CULPEPER*      CLEAR     51  47  87 CALM      30.37S
ORANGE*        PTCLDY    52  50  93 CALM      30.35F
GORDONSVILLE*  PTCLDY    52  51  98 CALM      30.35S
WARRENTON*     CLEAR     47  43  84 CALM      30.35F

$$

VAZ055>057-220500-
NORTH AND CENTRAL PIEDMONT

CITY           SKY/WX    TMP DP  RH WIND       PRES   REMARKS
FREDERICKSBRG* CLEAR     53  50  92 CALM      30.35S
STAFFORD*      CLEAR     48  48 100 CALM      30.40S

$$

NCZ024-NYZ072-PAZ021-071-VAZ022-071-220500-
OTHER REGIONAL OBSERVATIONS

CITY           SKY/WX    TMP DP  RH WIND       PRES   REMARKS
NEW YORK CITY  CLEAR     65  47  52 VRB3      30.38S
PHILADELPHIA   PTCLDY    59  48  67 S3        30.37S
PITTSBURGH     PTCLDY    57  53  86 CALM      30.27F
ROANOKE        PTCLDY    57  53  86 CALM      30.37S
RICHMOND       PTCLDY    58  52  80 CALM      30.35F
RALEIGH        MOCLDY    60  54  80 SE6       30.34F

$$

ANZ530>537-220500-
MARINE OBSERVATIONS

STATION/POSITION TIME  TEMP    WIND        PRES
                       AIR SEA DIR/SP/G
                 (UTC) (F)     (DEG/KT/KT) (MB)
THOMAS PT LIGHT  0400   66 68  170/  5/  5   N/A
BALT KEY BRIDGE  0348   62      40/  1/  2 1028.0F
COVE POINT       0348   67     180/ 10/ 11 1028.6F
LEWISETTA        0348          240/  1/  2   N/A
SOLOMONS ISLAND  0348   60 69  340/  2/  2 1027.5F
PINEY POINT      0342          120/  1/  2   N/A

$$





USA.gov is the U.S. government's official web portal to all federal, state and local government web resources and services.